Starlink 6139

operational
NORAD ID: 57109 Int'l Des: 2023-090 Owner: SPXS Country: US Constellation: starlink
LEOCIRCULAR

关于 Starlink 6139

正在加载描述...

实时位置

正在加载3D地球...

即将过境

高度历史

Altitude vs Time

uPlot chart will show altitude changes over time

两行轨道根数

1 57109U 23090J 26036.59216671 .00000600 00000-0 59487-4 0 9993
2 57109 43.0046 89.1842 0001518 261.3626 98.7045 15.02536706145585
Epoch: Feb 5, 2026 • Age: 27 hours

当前状态

高度 559.6 km
速度 7.59 km/s
星下点 24.94°N, 73.32°E
发射日期 Jun 23, 2023
运行时间 2.6 years
类型 internet

技术详情

分类 Payload
质量 305.00 kg
干质量 290.00 kg
总质量 305.00 kg
长度 0.20 m
直径 2.80 m
跨度 9.00 m
形状 Box + pan
制造商 SPXS
平台类型 Starlink
阶段状态 In Orbit
所有者/国家 SPXS/US

大型星座

Loading constellations...